| time (UTC) | temp C | wind direction | speed KPH | gust KPH | rain 1hr cm | rain 24hr cm | rain mn cm | humidity % | barometer mb |
| 20260906193319 | 26 | 53 | 8.0 | 14.5 | 0.00 | 0.15 | 0.15 | 73 | 1018.3 |
| 20260906192816 | 26 | 51 | 9.7 | 14.5 | 0.00 | 0.15 | 0.15 | 74 | 1018.4 |
| 20260906192315 | 26 | 72 | 9.7 | 14.5 | 0.00 | 0.15 | 0.15 | 78 | 1018.3 |
| 20260906191814 | 26 | 83 | 9.7 | 16.1 | 0.00 | 0.15 | 0.15 | 78 | 1018.5 |
| 20260906191309 | 25 | 51 | 9.7 | 16.1 | 0.00 | 0.15 | 0.15 | 80 | 1018.5 |
| 20260906190803 | 26 | 69 | 6.4 | 14.5 | 0.00 | 0.15 | 0.15 | 81 | 1018.5 |
| 20260906190257 | 25 | 50 | 6.4 | 12.9 | 0.00 | 0.15 | 0.15 | 82 | 1018.8 |
| 20260906185757 | 25 | 92 | 4.8 | 9.7 | 0.00 | 0.15 | 0.15 | 84 | 1018.8 |
| 20260906185256 | 24 | 86 | 6.4 | 9.7 | 0.00 | 0.15 | 0.15 | 82 | 1018.9 |
| 20260906184751 | 25 | 112 | 6.4 | 9.7 | 0.30 | 0.15 | 0.15 | 82 | 1018.9 |
| 20260906184246 | 25 | 145 | 1.6 | 6.4 | 0.30 | 0.15 | 0.15 | 81 | 1019.2 |
| 20260906183742 | 25 | 80 | 4.8 | 9.7 | 0.00 | 0.10 | 0.10 | 78 | 1019.1 |
| 20260906183238 | 25 | 107 | 3.2 | 6.4 | 0.00 | 0.10 | 0.10 | 79 | 1019.2 |
| 20260906182737 | 25 | 55 | 6.4 | 9.7 | 0.00 | 0.10 | 0.10 | 77 | 1019.2 |
| 20260906182233 | 25 | 156 | 1.6 | 6.4 | 0.00 | 0.10 | 0.10 | 82 | 1019.4 |
| 20260906181728 | 25 | 10 | 9.7 | 12.9 | 0.00 | 0.10 | 0.10 | 82 | 1019.3 |
| 20260906181225 | 24 | 320 | 4.8 | 14.5 | 0.00 | 0.10 | 0.10 | 85 | 1019.6 |
| 20260906180725 | 24 | 19 | 11.3 | 14.5 | 0.00 | 0.10 | 0.10 | 84 | 1019.8 |
| 20260906180220 | 24 | 57 | 9.7 | 25.7 | 0.00 | 0.10 | 0.10 | 86 | 1019.6 |
| 20260906175718 | 23 | 46 | 9.7 | 14.5 | 0.00 | 0.10 | 0.10 | 86 | 1019.3 |
| 20260906175214 | 23 | 32 | 9.7 | 17.7 | 0.00 | 0.10 | 0.10 | 84 | 1019.5 |
| 20260906174712 | 24 | 352 | 9.7 | 24.1 | 0.00 | 0.10 | 0.10 | 85 | 1019.6 |
| 20260906174206 | 24 | 352 | 11.3 | 16.1 | 0.00 | 0.10 | 0.10 | 83 | 1019.3 |
| 20260906173702 | 24 | 13 | 12.9 | 16.1 | 0.00 | 0.10 | 0.10 | 84 | 1019.7 |
| 20260906173157 | 25 | 76 | 9.7 | 14.5 | 0.00 | 0.10 | 0.10 | 86 | 1019.7 |
| 20260906172656 | 25 | 91 | 4.8 | 9.7 | 0.00 | 0.10 | 0.10 | 87 | 1019.8 |
| 20260906172152 | 24 | 20 | 4.8 | 9.7 | 0.00 | 0.10 | 0.10 | 88 | 1019.6 |
| 20260906171652 | 24 | 72 | 4.8 | 6.4 | 0.00 | 0.10 | 0.10 | 89 | 1019.6 |
| 20260906171147 | 24 | 72 | 3.2 | 4.8 | 0.00 | 0.10 | 0.10 | 89 | 1019.6 |
| 20260906170643 | 23 | 152 | 1.6 | 1.6 | 0.00 | 0.10 | 0.10 | 88 | 1019.6 |
| 20260906170143 | 23 | 154 | 0.0 | 0.0 | 0.13 | 0.10 | 0.10 | 87 | 1019.4 |
| 20260906165639 | 23 | 175 | 3.2 | 4.8 | 0.13 | 0.10 | 0.10 | 87 | 1019.4 |
| 20260906165134 | 23 | 200 | 6.4 | 6.4 | 0.00 | 0.08 | 0.08 | 87 | 1019.3 |
| 20260906164633 | 23 | 184 | 8.0 | 9.7 | 0.00 | 0.08 | 0.08 | 87 | 1019.1 |
| 20260906164129 | 23 | 166 | 1.6 | 3.2 | 0.00 | 0.08 | 0.08 | 89 | 1018.8 |
| 20260906163625 | 23 | 140 | 3.2 | 4.8 | 0.00 | 0.08 | 0.08 | 89 | 1019.1 |
| 20260906163120 | 23 | 157 | 1.6 | 1.6 | 0.00 | 0.08 | 0.08 | 89 | 1018.7 |
| 20260906162617 | 23 | 155 | 0.0 | 1.6 | 0.00 | 0.08 | 0.08 | 90 | 1018.5 |
| 20260906162112 | 23 | 157 | 1.6 | 1.6 | 0.00 | 0.08 | 0.08 | 90 | 1018.5 |
| 20260906161612 | 23 | 153 | 0.0 | 4.8 | 0.00 | 0.08 | 0.08 | 91 | 1018.3 |
| 20260906161111 | 23 | 5 | 4.8 | 6.4 | 0.00 | 0.08 | 0.08 | 91 | 1018.1 |
| 20260906160610 | 23 | 128 | 4.8 | 4.8 | 0.00 | 0.08 | 0.08 | 91 | 1018.6 |
| 20260906160109 | 23 | 126 | 1.6 | 4.8 | 0.00 | 0.08 | 0.08 | 92 | 1018.5 |
| 20260906155607 | 23 | 154 | 0.0 | 1.6 | 0.00 | 0.08 | 0.08 | 93 | 1018.7 |
| 20260906155103 | 23 | 155 | 0.0 | 1.6 | 0.00 | 0.08 | 0.08 | 93 | 1018.9 |
| 20260906154558 | 23 | 159 | 1.6 | 3.2 | 0.00 | 0.08 | 0.08 | 93 | 1018.3 |
| 20260906154057 | 23 | 117 | 4.8 | 14.5 | 0.00 | 0.08 | 0.08 | 94 | 1017.9 |
| 20260906153556 | 23 | 111 | 6.4 | 9.7 | 0.00 | 0.08 | 0.08 | 94 | 1018.0 |
| 20260906153051 | 22 | 123 | 3.2 | 9.7 | 0.00 | 0.08 | 0.08 | 94 | 1017.9 |
| 20260906152551 | 22 | 141 | 1.6 | 4.8 | 0.00 | 0.08 | 0.08 | 94 | 1018.3 |
| 20260906152050 | 22 | 125 | 3.2 | 4.8 | 0.00 | 0.08 | 0.08 | 94 | 1018.0 |
| 20260906151546 | 22 | 85 | 6.4 | 11.3 | 0.00 | 0.08 | 0.08 | 94 | 1017.8 |
| 20260906151041 | 22 | 47 | 4.8 | 6.4 | 0.00 | 0.08 | 0.08 | 94 | 1018.0 |
| 20260906150537 | 22 | 128 | 3.2 | 3.2 | 0.00 | 0.08 | 0.08 | 94 | 1018.6 |
| 20260906150032 | 22 | 155 | 0.0 | 0.0 | 0.00 | 0.08 | 0.08 | 94 | 1018.7 |
| 20260906145530 | 22 | 155 | 1.6 | 1.6 | 0.00 | 0.08 | 0.08 | 94 | 1018.6 |
| 20260906145026 | 22 | 156 | 0.0 | 1.6 | 0.00 | 0.08 | 0.08 | 93 | 1018.9 |
| 20260906144520 | 22 | 142 | 1.6 | 3.2 | 0.00 | 0.08 | 0.08 | 93 | 1018.8 |
| 20260906144015 | 22 | 152 | 0.0 | 1.6 | 0.00 | 0.08 | 0.08 | 93 | 1018.8 |
| 20260906143510 | 23 | 156 | 0.0 | 1.6 | 0.00 | 0.08 | 0.08 | 93 | 1019.1 |
| 20260906143008 | 22 | 170 | 3.2 | 4.8 | 0.00 | 0.08 | 0.08 | 94 | 1019.3 |
| 20260906142506 | 22 | 156 | 3.2 | 6.4 | 0.00 | 0.08 | 0.08 | 94 | 1019.4 |
| 20260906142002 | 22 | 165 | 1.6 | 4.8 | 0.00 | 0.08 | 0.08 | 94 | 1019.1 |
| 20260906141455 | 23 | 160 | 3.2 | 3.2 | 0.00 | 0.08 | 0.08 | 94 | 1019.0 |
| 20260906140951 | 23 | 159 | 0.0 | 1.6 | 0.00 | 0.08 | 0.08 | 94 | 1018.9 |
| 20260906140445 | 23 | 152 | 0.0 | 0.0 | 0.00 | 0.08 | 0.08 | 94 | 1019.0 |
| 20260906135943 | 23 | 152 | 0.0 | 1.6 | 0.18 | 0.08 | 0.08 | 94 | 1019.0 |
| 20260906135442 | 23 | 154 | 0.0 | 1.6 | 0.30 | 0.08 | 0.08 | 93 | 1018.9 |
| 20260906134937 | 23 | 149 | 0.0 | 0.0 | 0.13 | 0.05 | 0.05 | 93 | 1018.7 |
| 20260906134432 | 23 | 148 | 0.0 | 0.0 | 0.00 | 0.03 | 0.03 | 93 | 1018.9 |
| 20260906133927 | 23 | 144 | 0.0 | 0.0 | 0.00 | 0.03 | 0.03 | 93 | 1018.9 |
| 20260906133423 | 23 | 144 | 0.0 | 0.0 | 0.00 | 0.03 | 0.03 | 92 | 1018.8 |
| 20260906132919 | 23 | 151 | 0.0 | 0.0 | 0.18 | 0.03 | 0.03 | 92 | 1019.0 |
| 20260906132414 | 23 | 140 | 1.6 | 3.2 | 0.18 | 0.03 | 0.03 | 91 | 1018.9 |
| 20260906131909 | 23 | 156 | 0.0 | 0.0 | 0.00 | 0.00 | 0.00 | 90 | 1018.7 |
| 20260906131404 | 23 | 167 | 0.0 | 0.0 | 0.00 | 0.00 | 0.00 | 89 | 1018.5 |
| 20260906130900 | 23 | 151 | 0.0 | 0.0 | 0.00 | 0.00 | 0.00 | 89 | 1018.7 |
| 20260906130359 | 23 | 150 | 0.0 | 1.6 | 0.00 | 0.00 | 0.00 | 88 | 1018.7 |
| 20260906125859 | 23 | 157 | 0.0 | 3.2 | 0.00 | 0.00 | 0.00 | 87 | 1018.0 |
| 20260906125356 | 23 | 186 | 4.8 | 4.8 | 0.00 | 0.00 | 0.00 | 87 | 1018.4 |
| 20260906124851 | 24 | 200 | 3.2 | 4.8 | 0.00 | 0.00 | 0.00 | 87 | 1018.4 |
| 20260906124347 | 24 | 193 | 3.2 | 4.8 | 0.00 | 0.00 | 0.00 | 86 | 1018.3 |
| 20260906123846 | 24 | 161 | 0.0 | 6.4 | 0.00 | 0.00 | 0.00 | 85 | 1018.3 |
| 20260906123341 | 24 | 191 | 3.2 | 4.8 | 0.00 | 0.00 | 0.00 | 84 | 1018.1 |
| 20260906122841 | 24 | 161 | 4.8 | 9.7 | 0.00 | 0.00 | 0.00 | 84 | 1017.7 |
| 20260906122335 | 24 | 176 | 6.4 | 6.4 | 0.00 | 0.00 | 0.00 | 84 | 1017.2 |
| 20260906121832 | 24 | 163 | 3.2 | 6.4 | 0.00 | 0.00 | 0.00 | 84 | 1017.1 |
| 20260906121328 | 24 | 188 | 3.2 | 6.4 | 0.00 | 0.00 | 0.00 | 84 | 1016.8 |
| 20260906120824 | 24 | 157 | 3.2 | 4.8 | 0.00 | 0.00 | 0.00 | 85 | 1016.8 |
| 20260906120320 | 24 | 163 | 1.6 | 3.2 | 0.00 | 0.00 | 0.00 | 85 | 1016.8 |
| 20260906115816 | 24 | 165 | 3.2 | 4.8 | 0.00 | 0.00 | 0.00 | 84 | 1016.9 |
| 20260906115311 | 24 | 162 | 1.6 | 4.8 | 0.00 | 0.00 | 0.00 | 85 | 1016.9 |
| 20260906114810 | 24 | 159 | 3.2 | 4.8 | 0.00 | 0.00 | 0.00 | 85 | 1016.7 |
| 20260906114305 | 24 | 161 | 3.2 | 6.4 | 0.00 | 0.00 | 0.00 | 84 | 1016.8 |
| 20260906113800 | 24 | 177 | 6.4 | 6.4 | 0.00 | 0.00 | 0.00 | 85 | 1016.9 |
| 20260906113254 | 24 | 156 | 1.6 | 3.2 | 0.00 | 0.00 | 0.00 | 85 | 1016.9 |
| 20260906112754 | 24 | 165 | 3.2 | 4.8 | 0.00 | 0.00 | 0.00 | 85 | 1016.8 |
| 20260906112251 | 24 | 159 | 1.6 | 3.2 | 0.00 | 0.00 | 0.00 | 86 | 1016.8 |
| 20260906111744 | 24 | 164 | 3.2 | 4.8 | 0.00 | 0.00 | 0.00 | 86 | 1016.7 |
| 20260906111238 | 24 | 161 | 3.2 | 9.7 | 0.00 | 0.00 | 0.00 | 86 | 1016.9 |
| 20260906110734 | 24 | 157 | 3.2 | 6.4 | 0.00 | 0.00 | 0.00 | 86 | 1016.7 |
| 20260906110230 | 24 | 130 | 3.2 | 6.4 | 0.00 | 0.00 | 0.00 | 87 | 1016.8 |
| 20260906105728 | 24 | 156 | 1.6 | 4.8 | 0.00 | 0.00 | 0.00 | 87 | 1016.7 |
| 20260906105225 | 24 | 169 | 3.2 | 6.4 | 0.00 | 0.00 | 0.00 | 86 | 1016.5 |
| 20260906104725 | 24 | 187 | 4.8 | 6.4 | 0.00 | 0.00 | 0.00 | 86 | 1016.7 |
| 20260906104224 | 24 | 171 | 3.2 | 6.4 | 0.00 | 0.00 | 0.00 | 87 | 1016.7 |
| 20260906103721 | 24 | 172 | 3.2 | 4.8 | 0.00 | 0.00 | 0.00 | 87 | 1016.6 |
| 20260906103216 | 24 | 141 | 8.0 | 11.3 | 0.00 | 0.00 | 0.00 | 86 | 1016.6 |
| 20260906102712 | 25 | 161 | 4.8 | 6.4 | 0.00 | 0.00 | 0.00 | 86 | 1016.7 |
| 20260906102212 | 25 | 163 | 3.2 | 9.7 | 0.00 | 0.00 | 0.00 | 86 | 1016.7 |
| 20260906101711 | 25 | 187 | 4.8 | 9.7 | 0.00 | 0.00 | 0.00 | 86 | 1016.9 |
| 20260906101207 | 25 | 168 | 4.8 | 4.8 | 0.00 | 0.00 | 0.00 | 86 | 1017.0 |
| 20260906100702 | 25 | 160 | 3.2 | 6.4 | 0.00 | 0.00 | 0.00 | 86 | 1017.0 |
| 20260906100156 | 25 | 186 | 4.8 | 6.4 | 0.00 | 0.00 | 0.00 | 87 | 1016.8 |
| 20260906095651 | 24 | 160 | 1.6 | 4.8 | 0.00 | 0.00 | 0.00 | 87 | 1016.9 |
| 20260906095147 | 24 | 191 | 3.2 | 4.8 | 0.00 | 0.00 | 0.00 | 87 | 1016.6 |
| 20260906094646 | 25 | 154 | 1.6 | 3.2 | 0.00 | 0.00 | 0.00 | 87 | 1016.8 |
| 20260906094142 | 25 | 162 | 3.2 | 4.8 | 0.00 | 0.00 | 0.00 | 87 | 1016.7 |
| 20260906093638 | 25 | 160 | 0.0 | 4.8 | 0.00 | 0.00 | 0.00 | 87 | 1016.7 |
| 20260906093137 | 25 | 165 | 3.2 | 6.4 | 0.00 | 0.00 | 0.00 | 87 | 1016.7 |
| 20260906092632 | 25 | 173 | 1.6 | 4.8 | 0.00 | 0.00 | 0.00 | 88 | 1016.7 |
| 20260906092127 | 25 | 164 | 1.6 | 6.4 | 0.00 | 0.00 | 0.00 | 88 | 1016.7 |
| 20260906091623 | 24 | 158 | 1.6 | 3.2 | 0.00 | 0.00 | 0.00 | 88 | 1016.8 |
| 20260906091120 | 24 | 162 | 1.6 | 4.8 | 0.00 | 0.00 | 0.00 | 89 | 1016.6 |
| 20260906090615 | 24 | 160 | 1.6 | 3.2 | 0.00 | 0.00 | 0.00 | 89 | 1016.7 |
| 20260906090115 | 24 | 159 | 3.2 | 3.2 | 0.00 | 0.00 | 0.00 | 89 | 1016.8 |
| 20260906085614 | 24 | 155 | 1.6 | 3.2 | 0.00 | 0.00 | 0.00 | 89 | 1016.6 |
| 20260906085108 | 24 | 158 | 3.2 | 4.8 | 0.00 | 0.00 | 0.00 | 90 | 1016.6 |
| 20260906084603 | 24 | 155 | 1.6 | 4.8 | 0.00 | 0.00 | 0.00 | 91 | 1016.9 |
| 20260906084102 | 24 | 171 | 4.8 | 4.8 | 0.00 | 0.00 | 0.00 | 90 | 1017.0 |
| 20260906083558 | 24 | 160 | 1.6 | 4.8 | 0.00 | 0.00 | 0.00 | 90 | 1016.9 |
| 20260906083057 | 25 | 165 | 1.6 | 6.4 | 0.00 | 0.00 | 0.00 | 89 | 1017.1 |
| 20260906082553 | 25 | 148 | 4.8 | 4.8 | 0.00 | 0.00 | 0.00 | 88 | 1016.9 |
| 20260906082048 | 25 | 163 | 1.6 | 3.2 | 0.00 | 0.00 | 0.00 | 88 | 1017.1 |
| 20260906081544 | 25 | 165 | 1.6 | 3.2 | 0.00 | 0.00 | 0.00 | 88 | 1017.1 |
| 20260906081039 | 25 | 163 | 3.2 | 4.8 | 0.00 | 0.00 | 0.00 | 88 | 1017.1 |
| 20260906080536 | 25 | 182 | 3.2 | 4.8 | 0.00 | 0.00 | 0.00 | 87 | 1017.0 |
| 20260906080031 | 25 | 176 | 3.2 | 4.8 | 0.00 | 0.00 | 0.00 | 88 | 1017.1 |
| 20260906075526 | 25 | 165 | 3.2 | 4.8 | 0.00 | 0.00 | 0.00 | 87 | 1017.1 |
| 20260906075020 | 25 | 160 | 3.2 | 3.2 | 0.00 | 0.00 | 0.00 | 88 | 1017.0 |
| 20260906074515 | 25 | 165 | 4.8 | 6.4 | 0.00 | 0.00 | 0.00 | 87 | 1017.0 |
| 20260906074014 | 25 | 160 | 1.6 | 4.8 | 0.00 | 0.00 | 0.00 | 87 | 1016.7 |
| 20260906073509 | 25 | 151 | 4.8 | 4.8 | 0.00 | 0.00 | 0.00 | 87 | 1016.8 |
| 20260906073005 | 25 | 166 | 1.6 | 4.8 | 0.00 | 0.00 | 0.00 | 87 | 1016.8 |
| 20260906072500 | 25 | 156 | 3.2 | 11.3 | 0.00 | 0.00 | 0.00 | 87 | 1016.6 |
| 20260906071955 | 25 | 189 | 6.4 | 9.7 | 0.00 | 0.00 | 0.00 | 87 | 1016.7 |
| 20260906071452 | 25 | 178 | 4.8 | 6.4 | 0.00 | 0.00 | 0.00 | 88 | 1017.0 |
| 20260906070947 | 25 | 181 | 3.2 | 4.8 | 0.00 | 0.00 | 0.00 | 88 | 1016.8 |
| 20260906070442 | 25 | 159 | 1.6 | 6.4 | 0.00 | 0.00 | 0.00 | 88 | 1016.8 |
| 20260906065938 | 25 | 169 | 3.2 | 3.2 | 0.00 | 0.00 | 0.00 | 87 | 1016.8 |
| 20260906065432 | 25 | 165 | 3.2 | 3.2 | 0.00 | 0.00 | 0.00 | 87 | 1016.8 |
| 20260906064928 | 25 | 155 | 1.6 | 4.8 | 0.00 | 0.00 | 0.00 | 86 | 1016.7 |
| 20260906064424 | 25 | 147 | 1.6 | 4.8 | 0.00 | 0.00 | 0.00 | 86 | 1016.8 |
| 20260906063924 | 26 | 148 | 0.0 | 3.2 | 0.00 | 0.00 | 0.00 | 86 | 1016.7 |
| 20260906063419 | 26 | 168 | 3.2 | 9.7 | 0.00 | 0.00 | 0.00 | 86 | 1016.7 |
| 20260906062915 | 26 | 163 | 3.2 | 6.4 | 0.00 | 0.00 | 0.00 | 85 | 1016.8 |
| 20260906062414 | 26 | 196 | 4.8 | 11.3 | 0.00 | 0.00 | 0.00 | 85 | 1016.9 |
| 20260906061909 | 26 | 191 | 3.2 | 9.7 | 0.00 | 0.00 | 0.00 | 85 | 1017.0 |
| 20260906061406 | 26 | 179 | 4.8 | 9.7 | 0.00 | 0.00 | 0.00 | 85 | 1017.0 |
| 20260906060859 | 26 | 174 | 4.8 | 4.8 | 0.00 | 0.00 | 0.00 | 85 | 1017.0 |
| 20260906060357 | 26 | 148 | 6.4 | 9.7 | 0.00 | 0.00 | 0.00 | 85 | 1017.0 |
| 20260906055853 | 26 | 178 | 3.2 | 6.4 | 0.00 | 0.00 | 0.00 | 85 | 1017.0 |
| 20260906055349 | 26 | 172 | 6.4 | 9.7 | 0.00 | 0.00 | 0.00 | 84 | 1016.8 |
| 20260906054843 | 26 | 178 | 6.4 | 6.4 | 0.00 | 0.00 | 0.00 | 84 | 1016.9 |
| 20260906054338 | 26 | 171 | 8.0 | 9.7 | 0.00 | 0.00 | 0.00 | 84 | 1016.8 |
| 20260906053835 | 26 | 151 | 4.8 | 4.8 | 0.00 | 0.00 | 0.00 | 84 | 1017.0 |
| 20260906053330 | 26 | 161 | 3.2 | 6.4 | 0.00 | 0.00 | 0.00 | 84 | 1017.0 |
| 20260906052826 | 26 | 162 | 1.6 | 4.8 | 0.00 | 0.00 | 0.00 | 84 | 1017.1 |
| 20260906052322 | 26 | 159 | 1.6 | 3.2 | 0.00 | 0.00 | 0.00 | 83 | 1017.0 |
| 20260906051819 | 26 | 160 | 0.0 | 6.4 | 0.00 | 0.00 | 0.00 | 83 | 1017.0 |
| 20260906051318 | 26 | 144 | 6.4 | 9.7 | 0.00 | 0.00 | 0.00 | 83 | 1017.0 |
| 20260906050814 | 26 | 163 | 1.6 | 6.4 | 0.00 | 0.00 | 0.00 | 83 | 1017.0 |
| 20260906050309 | 26 | 163 | 3.2 | 3.2 | 0.00 | 0.00 | 0.00 | 82 | 1017.0 |
| 20260906045808 | 26 | 141 | 4.8 | 9.7 | 0.00 | 0.00 | 0.00 | 83 | 1017.2 |
| 20260906045305 | 26 | 149 | 3.2 | 9.7 | 0.00 | 0.00 | 0.00 | 82 | 1017.1 |
| 20260906044759 | 26 | 154 | 3.2 | 6.4 | 0.00 | 0.00 | 0.00 | 82 | 1017.2 |
| 20260906044253 | 26 | 169 | 3.2 | 9.7 | 0.00 | 0.00 | 0.00 | 82 | 1017.0 |
| 20260906043749 | 27 | 160 | 1.6 | 6.4 | 0.00 | 0.00 | 0.00 | 81 | 1017.1 |
| 20260906043245 | 27 | 142 | 3.2 | 6.4 | 0.00 | 0.00 | 0.00 | 81 | 1017.1 |
| 20260906042744 | 27 | 150 | 6.4 | 9.7 | 0.00 | 0.00 | 0.00 | 81 | 1017.0 |
| 20260906042243 | 27 | 183 | 3.2 | 6.4 | 0.00 | 0.00 | 0.00 | 81 | 1016.9 |
| 20260906041739 | 27 | 170 | 3.2 | 11.3 | 0.00 | 0.00 | 0.00 | 81 | 1017.1 |
| 20260906041234 | 27 | 194 | 4.8 | 9.7 | 0.00 | 0.00 | 0.00 | 81 | 1017.1 |
| 20260906040730 | 27 | 205 | 6.4 | 6.4 | 0.00 | 0.00 | 0.00 | 81 | 1017.0 |
| 20260906040225 | 27 | 148 | 1.6 | 6.4 | 0.00 | 0.00 | 0.00 | 81 | 1017.1 |
| 20260906035720 | 27 | 154 | 6.4 | 6.4 | 0.00 | 0.00 | 0.00 | 81 | 1017.3 |
| 20260906035216 | 27 | 143 | 0.0 | 1.6 | 0.00 | 0.00 | 0.00 | 80 | 1017.3 |
| 20260906034716 | 27 | 145 | 0.0 | 3.2 | 0.00 | 0.00 | 0.00 | 80 | 1017.1 |
| 20260906034211 | 27 | 149 | 1.6 | 3.2 | 0.00 | 0.00 | 0.00 | 79 | 1017.1 |
| 20260906033707 | 27 | 152 | 0.0 | 4.8 | 0.00 | 0.00 | 0.00 | 79 | 1017.0 |
| 20260906033206 | 27 | 160 | 4.8 | 4.8 | 0.00 | 0.00 | 0.00 | 80 | 1017.0 |
| 20260906032703 | 27 | 134 | 1.6 | 1.6 | 0.00 | 0.00 | 0.00 | 80 | 1017.2 |
| 20260906032158 | 27 | 146 | 1.6 | 3.2 | 0.00 | 0.00 | 0.00 | 79 | 1017.1 |
| 20260906031653 | 27 | 151 | 1.6 | 1.6 | 0.00 | 0.00 | 0.00 | 79 | 1017.1 |
| 20260906031148 | 27 | 149 | 0.0 | 3.2 | 0.00 | 0.00 | 0.00 | 78 | 1017.4 |
| 20260906030648 | 27 | 147 | 1.6 | 4.8 | 0.00 | 0.00 | 0.00 | 78 | 1017.1 |
| 20260906030143 | 27 | 141 | 0.0 | 4.8 | 0.00 | 0.00 | 0.00 | 77 | 1017.3 |
| 20260906025642 | 27 | 159 | 1.6 | 11.3 | 0.00 | 0.00 | 0.00 | 77 | 1017.2 |
| 20260906025141 | 27 | 159 | 0.0 | 1.6 | 0.00 | 0.00 | 0.00 | 77 | 1017.2 |
| 20260906024636 | 27 | 142 | 1.6 | 3.2 | 0.00 | 0.00 | 0.00 | 77 | 1017.2 |
| 20260906024130 | 27 | 160 | 1.6 | 3.2 | 0.00 | 0.00 | 0.00 | 77 | 1017.0 |
| 20260906023627 | 27 | 160 | 3.2 | 3.2 | 0.00 | 0.00 | 0.00 | 77 | 1016.9 |
| 20260906023126 | 27 | 149 | 0.0 | 4.8 | 0.00 | 0.00 | 0.00 | 77 | 1016.9 |
| 20260906022622 | 27 | 147 | 0.0 | 3.2 | 0.00 | 0.00 | 0.00 | 77 | 1017.0 |
| 20260906022117 | 27 | 141 | 0.0 | 4.8 | 0.00 | 0.00 | 0.00 | 77 | 1016.6 |
| 20260906021613 | 27 | 143 | 0.0 | 1.6 | 0.00 | 0.00 | 0.00 | 78 | 1016.6 |
| 20260906021111 | 27 | 144 | 0.0 | 1.6 | 0.00 | 0.00 | 0.00 | 78 | 1016.4 |
| 20260906020611 | 27 | 141 | 1.6 | 3.2 | 0.00 | 0.00 | 0.00 | 79 | 1016.1 |
| 20260906020106 | 27 | 145 | 0.0 | 1.6 | 0.00 | 0.00 | 0.00 | 79 | 1016.1 |
| 20260906015606 | 27 | 151 | 0.0 | 0.0 | 0.00 | 0.00 | 0.00 | 79 | 1016.1 |
| 20260906015105 | 27 | 155 | 1.6 | 1.6 | 0.00 | 0.00 | 0.00 | 79 | 1016.1 |
| 20260906014559 | 27 | 151 | 0.0 | 3.2 | 0.00 | 0.00 | 0.00 | 79 | 1015.8 |
| 20260906014056 | 27 | 160 | 3.2 | 4.8 | 0.00 | 0.00 | 0.00 | 79 | 1015.8 |
| 20260906013551 | 27 | 155 | 1.6 | 4.8 | 0.00 | 0.00 | 0.00 | 79 | 1015.8 |
| 20260906013046 | 27 | 149 | 0.0 | 1.6 | 0.00 | 0.00 | 0.00 | 79 | 1015.7 |
| 20260906012541 | 28 | 158 | 1.6 | 1.6 | 0.00 | 0.00 | 0.00 | 79 | 1015.8 |
| 20260906012040 | 28 | 148 | 0.0 | 1.6 | 0.00 | 0.00 | 0.00 | 78 | 1015.8 |
| 20260906011537 | 28 | 156 | 1.6 | 3.2 | 0.00 | 0.00 | 0.00 | 77 | 1015.8 |
| 20260906011036 | 28 | 128 | 0.0 | 3.2 | 0.00 | 0.00 | 0.00 | 77 | 1015.6 |
| 20260906010532 | 28 | 151 | 0.0 | 1.6 | 0.00 | 0.00 | 0.00 | 75 | 1015.4 |
| 20260906010028 | 29 | 147 | 1.6 | 1.6 | 0.00 | 0.00 | 0.00 | 74 | 1015.3 |
| 20260906005527 | 29 | 146 | 0.0 | 3.2 | 0.00 | 0.00 | 0.00 | 73 | 1015.4 |
| 20260906005026 | 30 | 154 | 1.6 | 1.6 | 0.00 | 0.00 | 0.00 | 72 | 1015.4 |
| 20260906004520 | 30 | 151 | 1.6 | 4.8 | 0.00 | 0.00 | 0.00 | 71 | 1015.5 |
| 20260906004015 | 30 | 157 | 1.6 | 4.8 | 0.00 | 0.00 | 0.00 | 70 | 1015.5 |
| 20260906003511 | 30 | 155 | 1.6 | 1.6 | 0.00 | 0.00 | 0.00 | 70 | 1015.4 |
| 20260906003007 | 30 | 153 | 3.2 | 3.2 | 0.00 | 0.00 | 0.00 | 69 | 1015.6 |
| 20260906002507 | 31 | 153 | 0.0 | 0.0 | 0.00 | 0.00 | 0.00 | 68 | 1015.2 |
| 20260906002001 | 31 | 153 | 0.0 | 4.8 | 0.00 | 0.00 | 0.00 | 66 | 1015.3 |
| 20260906001458 | 31 | 157 | 3.2 | 6.4 | 0.00 | 0.00 | 0.00 | 65 | 1015.4 |
| 20260906000952 | 31 | 156 | 1.6 | 11.3 | 0.00 | 0.00 | 0.00 | 64 | 1015.3 |
| 20260906000448 | 31 | 184 | 6.4 | 11.3 | 0.00 | 0.00 | 0.00 | 64 | 1015.1 |
| 20260905235948 | 31 | 172 | 4.8 | 9.7 | 0.00 | 0.00 | 0.00 | 64 | 1015.0 |
| 20260905235442 | 31 | 158 | 3.2 | 6.4 | 0.00 | 0.00 | 0.00 | 64 | 1015.1 |
| 20260905234937 | 31 | 193 | 12.9 | 16.1 | 0.00 | 0.00 | 0.00 | 63 | 1015.0 |
| 20260905234433 | 32 | 143 | 6.4 | 11.3 | 0.00 | 0.00 | 0.00 | 63 | 1015.0 |
| 20260905233932 | 32 | 151 | 4.8 | 11.3 | 0.00 | 0.00 | 0.00 | 63 | 1014.9 |
| 20260905233428 | 32 | 174 | 4.8 | 9.7 | 0.00 | 0.00 | 0.00 | 62 | 1014.8 |
| 20260905232926 | 32 | 190 | 4.8 | 11.3 | 0.00 | 0.00 | 0.00 | 62 | 1014.9 |
| 20260905232423 | 32 | 155 | 9.7 | 14.5 | 0.00 | 0.00 | 0.00 | 61 | 1014.9 |
| 20260905231918 | 32 | 171 | 4.8 | 12.9 | 0.00 | 0.00 | 0.00 | 61 | 1014.8 |
| 20260905231414 | 32 | 167 | 6.4 | 11.3 | 0.00 | 0.00 | 0.00 | 61 | 1014.9 |
| 20260905230910 | 32 | 164 | 3.2 | 11.3 | 0.00 | 0.00 | 0.00 | 61 | 1014.9 |
| 20260905230409 | 32 | 147 | 6.4 | 9.7 | 0.00 | 0.00 | 0.00 | 61 | 1014.8 |
| 20260905225907 | 32 | 154 | 3.2 | 9.7 | 0.00 | 0.00 | 0.00 | 61 | 1014.9 |
| 20260905225402 | 32 | 150 | 6.4 | 22.5 | 0.00 | 0.00 | 0.00 | 60 | 1014.8 |
| 20260905224857 | 32 | 200 | 9.7 | 14.5 | 0.00 | 0.00 | 0.00 | 59 | 1014.5 |
| 20260905224353 | 32 | 196 | 16.1 | 20.9 | 0.00 | 0.00 | 0.00 | 59 | 1014.8 |
| 20260905223848 | 32 | 228 | 11.3 | 14.5 | 0.00 | 0.00 | 0.00 | 59 | 1014.5 |
| 20260905223346 | 32 | 253 | 9.7 | 20.9 | 0.00 | 0.00 | 0.00 | 59 | 1014.6 |
| 20260905222845 | 32 | 184 | 9.7 | 20.9 | 0.00 | 0.00 | 0.00 | 58 | 1014.5 |
| 20260905222344 | 32 | 198 | 14.5 | 20.9 | 0.00 | 0.00 | 0.00 | 58 | 1014.5 |
| 20260905221841 | 32 | 175 | 8.0 | 16.1 | 0.00 | 0.00 | 0.00 | 58 | 1014.5 |
| 20260905221337 | 33 | 167 | 6.4 | 12.9 | 0.00 | 0.00 | 0.00 | 58 | 1014.3 |
| 20260905220832 | 33 | 196 | 9.7 | 17.7 | 0.00 | 0.00 | 0.00 | 57 | 1014.3 |
| 20260905220328 | 32 | 144 | 6.4 | 12.9 | 0.00 | 0.00 | 0.00 | 58 | 1014.2 |
| 20260905215828 | 32 | 159 | 8.0 | 17.7 | 0.00 | 0.00 | 0.00 | 57 | 1014.4 |
| 20260905215324 | 32 | 167 | 9.7 | 14.5 | 0.00 | 0.00 | 0.00 | 57 | 1014.5 |
| 20260905214820 | 32 | 159 | 8.0 | 16.1 | 0.00 | 0.00 | 0.00 | 57 | 1014.3 |
| 20260905214315 | 32 | 162 | 9.7 | 16.1 | 0.00 | 0.00 | 0.00 | 58 | 1014.1 |
| 20260905213810 | 32 | 211 | 12.9 | 20.9 | 0.00 | 0.00 | 0.00 | 57 | 1014.1 |
| 20260905213307 | 32 | 215 | 17.7 | 20.9 | 0.00 | 0.00 | 0.00 | 56 | 1014.4 |
| 20260905212807 | 32 | 135 | 16.1 | 22.5 | 0.00 | 0.00 | 0.00 | 56 | 1014.4 |
| 20260905212306 | 32 | 190 | 8.0 | 14.5 | 0.00 | 0.00 | 0.00 | 59 | 1014.6 |
| 20260905211801 | 32 | 201 | 12.9 | 20.9 | 0.00 | 0.00 | 0.00 | 57 | 1014.5 |
| 20260905211256 | 32 | 174 | 9.7 | 22.5 | 0.00 | 0.00 | 0.00 | 58 | 1014.6 |
| 20260905210753 | 31 | 148 | 14.5 | 29.0 | 0.00 | 0.00 | 0.00 | 57 | 1014.6 |
| 20260905210252 | 31 | 170 | 12.9 | 20.9 | 0.00 | 0.00 | 0.00 | 57 | 1014.6 |
| 20260905205751 | 31 | 135 | 11.3 | 22.5 | 0.00 | 0.00 | 0.00 | 56 | 1014.7 |
| 20260905205246 | 31 | 166 | 24.1 | 29.0 | 0.00 | 0.00 | 0.00 | 53 | 1014.4 |
| 20260905204745 | 31 | 204 | 16.1 | 24.1 | 0.00 | 0.00 | 0.00 | 53 | 1014.6 |
| 20260905204241 | 31 | 177 | 16.1 | 24.1 | 0.00 | 0.00 | 0.00 | 53 | 1014.7 |
| 20260905203740 | 31 | 187 | 11.3 | 27.4 | 0.00 | 0.00 | 0.00 | 53 | 1014.6 |
| 20260905203236 | 31 | 149 | 14.5 | 20.9 | 0.00 | 0.00 | 0.00 | 52 | 1014.9 |
| 20260905202732 | 31 | 169 | 6.4 | 22.5 | 0.00 | 0.00 | 0.00 | 54 | 1014.8 |
| 20260905202227 | 30 | 194 | 9.7 | 20.9 | 0.00 | 0.00 | 0.00 | 54 | 1014.8 |
| 20260905201722 | 30 | 143 | 6.4 | 16.1 | 0.00 | 0.00 | 0.00 | 55 | 1015.1 |
| 20260905201217 | 30 | 165 | 11.3 | 20.9 | 0.00 | 0.00 | 0.00 | 54 | 1015.2 |
| 20260905200712 | 30 | 201 | 12.9 | 20.9 | 0.00 | 0.00 | 0.00 | 54 | 1015.3 |
| 20260905200208 | 30 | 148 | 9.7 | 16.1 | 0.00 | 0.00 | 0.00 | 57 | 1015.2 |
| 20260905195706 | 30 | 177 | 12.9 | 17.7 | 0.00 | 0.00 | 0.00 | 58 | 1015.3 |
| 20260905195200 | 29 | 182 | 8.0 | 24.1 | 0.00 | 0.00 | 0.00 | 58 | 1015.4 |
| 20260905194656 | 29 | 188 | 11.3 | 17.7 | 0.00 | 0.00 | 0.00 | 60 | 1015.1 |
| 20260905194155 | 28 | 158 | 9.7 | 20.9 | 0.00 | 0.00 | 0.00 | 61 | 1015.3 |